Date String (YYYY-MM-DD hh:mm:ss) UTC,Instrument flags,Ambient pressure (hPa),Sample flow (lpm),Bypass flow (lpm),Sample temperature (°C),Ambient temperature (°C),ASC tube jacket temperature (°C),LED temperature (°C),Box temperature (°C),Sample RH (%),Span deviation,Mass concentration (μg/m³),Mass concentration (μg/m³),Mass concentration (μg/m³)
DateTimeUTC,F1_M11,P_M11,Q1_M11,Q2_M11,T1_M11,T2_M11,T3_M11,T4_M11,T5_M11,U1_M11,ZSPAN_M11,X0_M11,X2_M11,X1_M11
2023-01-14 19:00:00,,0817.3,5.01,0.00,25.3,24.0,00.0,34.2,27.1,10.4,0000.0,0000.54,0000.31,0000.28
2023-01-14 19:01:00,,0817.3,4.99,0.00,25.3,23.9,00.0,34.2,27.1,10.5,0000.0,0000.57,0000.33,0000.28
2023-01-14 19:02:00,,0817.4,5.00,0.00,25.3,23.9,00.0,34.2,27.1,10.6,0000.0,0000.58,0000.33,0000.28
2023-01-14 19:03:00,,0817.4,5.00,0.00,25.3,24.0,00.0,34.2,27.1,10.6,0000.0,0000.59,0000.35,0000.28
2023-01-14 19:04:00,,0817.3,5.00,0.00,25.3,24.0,00.0,34.2,27.1,11.2,0000.0,0000.52,0000.34,0000.29
2023-01-14 19:05:00,,0817.2,5.00,0.00,25.3,24.0,00.0,34.2,27.1,11.0,0000.0,0000.51,0000.34,0000.28
2023-01-14 19:06:00,,0817.0,5.01,0.00,25.3,24.0,00.0,34.2,27.1,10.5,0000.0,0000.52,0000.33,0000.27
2023-01-14 19:07:00,,0817.1,5.00,0.00,25.3,24.0,00.0,34.2,27.1,10.8,0000.0,0000.59,0000.34,0000.27
2023-01-14 19:08:00,,0817.1,5.00,0.00,25.3,24.0,00.0,34.2,27.1,10.7,0000.0,0000.53,0000.33,0000.27
2023-01-14 19:09:00,,0817.1,4.99,0.00,25.3,24.0,00.0,34.2,27.1,10.6,0000.0,0000.50,0000.32,0000.27
2023-01-14 19:10:00,,0817.2,5.00,0.00,25.3,24.0,00.0,34.2,27.1,10.5,0000.0,0000.49,0000.32,0000.26
2023-01-14 19:11:00,,0817.3,5.00,0.00,25.4,24.0,00.0,34.2,27.1,11.0,0000.0,0000.49,0000.32,0000.26
2023-01-14 19:12:00,,0817.2,5.00,0.00,25.4,24.0,00.0,34.2,27.1,11.5,0000.0,0000.45,0000.30,0000.25
2023-01-14 19:13:00,,0817.2,5.00,0.00,25.4,24.1,00.0,34.2,27.2,10.4,0000.0,0000.45,0000.30,0000.26
2023-01-14 19:14:00,,0817.2,4.99,0.00,25.4,24.1,00.0,34.2,27.2,10.4,0000.0,0000.42,0000.28,0000.25
2023-01-14 19:15:00,,0817.2,5.00,0.00,25.4,24.1,00.0,34.2,27.2,10.6,0000.0,0000.53,0000.28,0000.25
2023-01-14 19:16:00,,0817.1,5.00,0.00,25.4,24.1,00.0,34.2,27.2,11.1,0000.0,0000.76,0000.30,0000.26
2023-01-14 19:17:00,,0817.1,5.00,0.00,25.4,24.1,00.0,34.2,27.2,11.4,0000.0,0000.75,0000.30,0000.26
2023-01-14 19:18:00,,0817.2,5.00,0.00,25.4,24.1,00.0,34.2,27.2,11.0,0000.0,0000.66,0000.29,0000.26
2023-01-14 19:19:00,,0817.1,5.00,0.00,25.4,24.2,00.0,34.2,27.2,10.7,0000.0,0000.67,0000.29,0000.26
2023-01-14 19:20:00,,0817.1,5.01,0.00,25.4,24.2,00.0,34.2,27.2,11.0,0000.0,0000.66,0000.29,0000.27
2023-01-14 19:21:00,,0817.1,4.99,0.00,25.4,24.2,00.0,34.2,27.2,11.2,0000.0,0000.66,0000.29,0000.27
2023-01-14 19:22:00,,0817.1,5.00,0.00,25.4,24.2,00.0,34.2,27.2,10.9,0000.0,0000.67,0000.29,0000.27
2023-01-14 19:23:00,,0817.1,5.00,0.00,25.4,24.2,00.0,34.2,27.3,11.2,0000.0,0000.68,0000.30,0000.27
2023-01-14 19:24:00,,0817.2,4.99,0.00,25.5,24.2,00.0,34.2,27.3,11.2,0000.0,0000.68,0000.30,0000.27
2023-01-14 19:25:00,,0817.1,5.00,0.00,25.5,24.2,00.0,34.3,27.3,10.6,0000.0,0000.68,0000.30,0000.27
2023-01-14 19:26:00,,0817.1,5.00,0.00,25.5,24.2,00.0,34.3,27.3,10.6,0000.0,0000.53,0000.29,0000.27
2023-01-14 19:27:00,,0817.1,5.00,0.00,25.5,24.2,00.0,34.3,27.3,10.6,0000.0,0000.32,0000.27,0000.26
2023-01-14 19:28:00,,0817.1,5.01,0.00,25.5,24.2,00.0,34.3,27.3,10.1,0000.0,0000.32,0000.27,0000.27
2023-01-14 19:29:00,,0817.1,5.00,0.00,25.5,24.2,00.0,34.3,27.3,10.0,0000.0,0000.32,0000.27,0000.26
2023-01-14 19:30:00,,0817.1,5.00,0.00,25.5,24.3,00.0,34.3,27.3,10.2,0000.0,0000.31,0000.27,0000.26
2023-01-14 19:31:00,,0817.1,5.00,0.00,25.5,24.3,00.0,34.3,27.3,10.2,0000.0,0000.31,0000.27,0000.26
2023-01-14 19:32:00,,0817.0,5.00,0.00,25.5,24.3,00.0,34.3,27.3,10.6,0000.0,0000.32,0000.27,0000.26
2023-01-14 19:33:00,,0817.0,4.99,0.00,25.5,24.3,00.0,34.3,27.4,10.3,0000.0,0000.32,0000.27,0000.26
2023-01-14 19:34:00,,0816.9,5.00,0.00,25.6,24.4,00.0,34.3,27.4,10.8,0000.0,0000.31,0000.27,0000.26
2023-01-14 19:35:00,,0817.2,5.00,0.00,25.6,24.4,00.0,34.3,27.4,11.2,0000.0,0000.30,0000.26,0000.26
2023-01-14 19:36:00,,0817.0,4.98,0.00,25.6,24.4,00.0,34.3,27.4,10.8,0000.0,0000.30,0000.26,0000.26
2023-01-14 19:37:00,,0816.9,5.01,0.00,25.6,24.4,00.0,34.4,27.4,10.5,0000.0,0000.30,0000.26,0000.26
2023-01-14 19:38:00,,0816.9,5.00,0.00,25.6,24.4,00.0,34.4,27.4,10.7,0000.0,0000.31,0000.27,0000.26
2023-01-14 19:39:00,,0817.0,5.00,0.00,25.6,24.4,00.0,34.4,27.5,10.4,0000.0,0000.31,0000.27,0000.26
2023-01-14 19:40:00,,0816.9,5.00,0.00,25.6,24.4,00.0,34.4,27.5,10.8,0000.0,0000.32,0000.28,0000.26
2023-01-14 19:41:00,,0816.9,5.00,0.00,25.6,24.4,00.0,34.4,27.5,10.8,0000.0,0000.34,0000.28,0000.27
2023-01-14 19:42:00,,0816.9,5.00,0.00,25.7,24.4,00.0,34.4,27.5,11.1,0000.0,0000.35,0000.29,0000.27
2023-01-14 19:43:00,,0816.7,5.00,0.00,25.7,24.4,00.0,34.4,27.5,10.9,0000.0,0000.33,0000.28,0000.26
2023-01-14 19:44:00,,0816.9,5.00,0.00,25.7,24.4,00.0,34.4,27.5,10.9,0000.0,0000.34,0000.27,0000.26
2023-01-14 19:45:00,,0817.0,5.00,0.00,25.7,24.4,00.0,34.4,27.5,10.7,0000.0,0000.35,0000.28,0000.26
2023-01-14 19:46:00,,0816.7,5.02,0.00,25.7,24.5,00.0,34.4,27.5,10.8,0000.0,0000.41,0000.30,0000.26
2023-01-14 19:47:00,,0816.8,5.01,0.00,25.7,24.5,00.0,34.5,27.5,10.8,0000.0,0000.44,0000.31,0000.27
2023-01-14 19:48:00,,0816.8,5.00,0.00,25.7,24.5,00.0,34.5,27.5,10.7,0000.0,0000.43,0000.31,0000.27
2023-01-14 19:49:00,,0816.9,4.99,0.00,25.7,24.5,00.0,34.5,27.5,10.5,0000.0,0000.43,0000.31,0000.27
2023-01-14 19:50:00,,0817.1,4.99,0.00,25.7,24.5,00.0,34.5,27.6,10.6,0000.0,0000.44,0000.31,0000.27
2023-01-14 19:51:00,,0816.6,5.01,0.00,25.7,24.5,00.0,34.5,27.6,10.8,0000.0,0000.55,0000.32,0000.27
2023-01-14 19:52:00,,0816.6,5.00,0.00,25.8,24.6,00.0,34.5,27.6,10.2,0000.0,0000.55,0000.32,0000.27
2023-01-14 19:53:00,,0816.6,5.01,0.00,25.8,24.6,00.0,34.5,27.6,10.5,0000.0,0000.55,0000.32,0000.27
2023-01-14 19:54:00,,0816.7,5.01,0.00,25.8,24.6,00.0,34.5,27.6,11.3,0000.0,0000.58,0000.34,0000.28
2023-01-14 19:55:00,,0816.7,5.00,0.00,25.8,24.6,00.0,34.5,27.6,11.4,0000.0,0000.64,0000.35,0000.28
2023-01-14 19:56:00,,0816.6,5.00,0.00,25.8,24.6,00.0,34.5,27.6,11.1,0000.0,0000.63,0000.35,0000.28
2023-01-14 19:57:00,,0816.6,4.99,0.00,25.8,24.6,00.0,34.6,27.6,10.8,0000.0,0000.58,0000.33,0000.28
2023-01-14 19:58:00,,0816.6,5.00,0.00,25.8,24.6,00.0,34.6,27.6,11.1,0000.0,0000.57,0000.33,0000.28
2023-01-14 19:59:00,,0816.6,5.01,0.00,25.8,24.6,00.0,34.6,27.7,11.1,0000.0,0000.59,0000.33,0000.28
